GW3318 Weather Reports


time (UTC)temp
C
wind
direction
speed
KPH
gust
KPH
rain 1hr
cm
rain 24hr
cm
rain mn
cm
humidity
%
barometer
mb
20260504235313 20 76 11.3 22.5 0.03 2.29 0.20 89 1014.2
20260504234312 20 28 9.7 20.9 0.03 2.29 0.20 89 1014.1
20260504233812 20 89 8.0 19.3 0.03 2.29 0.20 89 1014.1
20260504233314 20 18 9.7 20.9 0.03 2.29 0.20 89 1014.1
20260504232813 20 42 8.0 19.3 0.03 2.29 0.20 89 1013.9
20260504232311 20 39 11.3 27.4 0.03 2.29 0.20 89 1013.7
20260504231812 20 19 9.7 32.2 0.05 2.29 0.20 89 1013.6
20260504231312 20 53 14.5 33.8 0.08 2.29 0.20 88 1013.4
20260504230813 20 45 16.1 27.4 0.10 2.26 0.18 87 1013.3
20260504230312 20 55 12.9 32.2 0.15 2.26 0.18 87 1013.4
20260504225812 20 43 9.7 20.9 0.18 2.26 0.18 88 1013.6
20260504225312 20 75 4.8 24.1 0.18 2.26 0.18 88 1013.8
20260504224812 20 85 8.0 22.5 0.18 2.26 0.18 88 1013.8
20260504224312 20 78 4.8 19.3 0.18 2.26 0.18 88 1013.8
20260504223812 20 31 3.2 20.9 0.18 2.26 0.18 89 1013.6
20260504223313 20 80 6.4 19.3 0.18 2.26 0.18 88 1013.6
20260504222812 20 87 8.0 14.5 0.18 2.26 0.18 88 1013.5
20260504222312 20 48 6.4 19.3 0.18 2.26 0.18 88 1013.5
20260504221812 21 47 4.8 19.3 0.15 2.24 0.15 87 1013.5
20260504221313 21 47 4.8 14.5 0.13 2.21 0.13 86 1013.5
20260504220811 21 88 4.8 14.5 0.08 2.16 0.08 85 1013.7
20260504220311 21 112 6.4 14.5 0.03 2.11 0.03 84 1013.4
20260504215812 21 56 6.4 16.1 0.00 2.08 0.00 83 1013.5
20260504215312 21 58 4.8 16.1 0.00 2.08 0.00 81 1013.7
20260504214812 21 88 8.0 14.5 0.00 2.08 0.00 81 1013.8
20260504214312 21 31 3.2 14.5 0.00 2.08 0.00 81 1013.6
20260504213312 21 50 6.4 20.9 0.00 2.08 0.00 81 1013.3
20260504212813 21 342 8.0 32.2 0.00 2.08 0.00 82 1013.1
20260504212312 21 40 8.0 24.1 0.00 2.08 0.00 82 1013.1
20260504211812 21 59 6.4 20.9 0.00 2.08 0.00 82 1013.1
20260504211312 21 55 9.7 19.3 0.00 2.08 0.00 82 1013.1
20260504210812 21 71 8.0 19.3 0.00 2.08 0.00 82 1012.9
20260504210312 21 70 9.7 22.5 0.00 2.08 0.00 82 1012.9
20260504205812 21 73 6.4 16.1 0.00 2.08 0.00 82 1013.1
20260504205312 21 62 9.7 24.1 0.00 2.08 0.00 82 1013.2
20260504204812 21 20 4.8 19.3 0.00 2.08 0.00 82 1013.2
20260504204312 21 84 9.7 20.9 0.00 2.08 0.00 83 1013.2
20260504203812 21 60 8.0 19.3 0.00 2.08 0.00 83 1013.3
20260504203312 22 58 9.7 22.5 0.00 2.08 0.00 83 1013.2
20260504202813 22 38 9.7 22.5 0.00 2.08 0.00 83 1013.2
20260504202312 22 51 8.0 22.5 0.00 2.08 0.00 83 1013.2
20260504201811 22 37 9.7 19.3 0.00 2.08 0.00 82 1013.2
20260504201312 22 28 12.9 24.1 0.00 2.08 0.00 83 1013.1
20260504200812 22 35 8.0 20.9 0.00 2.08 0.00 83 1013.0
20260504200312 22 50 8.0 22.5 0.00 2.08 0.00 83 1012.9
20260504195311 22 51 8.0 24.1 0.00 2.08 0.00 83 1012.9
20260504194812 22 37 9.7 19.3 0.00 2.08 0.00 83 1012.9
20260504194312 22 45 9.7 19.3 0.00 2.08 0.00 83 1013.0
20260504193812 22 54 9.7 24.1 0.00 2.08 0.00 83 1013.0
20260504193311 22 59 9.7 20.9 0.00 2.08 0.00 83 1013.0
20260504192811 22 49 9.7 19.3 0.00 2.08 0.00 83 1013.0
20260504192311 22 69 11.3 22.5 0.00 2.08 0.00 83 1013.0
20260504191813 22 40 11.3 22.5 0.00 2.08 0.00 84 1013.1
20260504191312 22 53 11.3 32.2 0.00 2.08 0.00 84 1013.1
20260504190811 22 55 11.3 22.5 0.00 2.08 0.00 84 1013.1
20260504190312 22 57 11.3 22.5 0.00 2.08 0.00 84 1013.0
20260504185812 22 96 9.7 22.5 0.00 2.08 0.00 84 1012.9
20260504185312 22 34 11.3 25.7 0.00 2.08 0.00 84 1013.0
20260504184812 22 68 11.3 22.5 0.00 2.08 0.00 85 1013.1
20260504184311 22 54 9.7 20.9 0.00 2.08 0.00 84 1013.2
20260504183811 22 51 11.3 25.7 0.00 2.08 0.00 84 1013.2
20260504183311 22 58 11.3 22.5 0.00 2.08 0.00 84 1013.3
20260504182812 22 58 9.7 32.2 0.00 2.08 0.00 84 1013.3
20260504182311 22 50 11.3 24.1 0.00 2.08 0.00 84 1013.3
20260504181812 22 35 9.7 27.4 0.00 2.08 0.00 84 1013.3
20260504181311 22 71 11.3 20.9 0.00 2.08 0.00 84 1013.5
20260504175811 22 54 8.0 16.1 0.00 2.08 0.00 84 1014.0
20260504175312 22 35 9.7 20.9 0.00 2.08 0.00 84 1014.1
20260504174812 22 54 11.3 22.5 0.00 2.08 0.00 84 1014.3
20260504174311 22 69 9.7 19.3 0.00 2.08 0.00 84 1014.2
20260504173811 22 52 9.7 19.3 0.00 2.08 0.00 84 1014.2
20260504173312 22 52 8.0 22.5 0.00 2.08 0.00 84 1014.1
20260504172812 22 42 8.0 20.9 0.00 2.08 0.00 84 1014.1
20260504171812 22 76 8.0 19.3 0.00 2.08 0.00 84 1014.4
20260504171312 22 68 9.7 22.5 0.00 2.08 0.00 84 1014.5
20260504170811 22 54 6.4 29.0 0.00 2.08 0.00 84 1014.6
20260504170312 22 72 3.2 14.5 0.00 2.08 0.00 84 1014.7
20260504160311 22 33 9.7 24.1 0.00 2.08 0.00 85 1014.8
20260504150811 22 62 9.7 22.5 0.00 2.08 0.03 85 1015.2
20260504150311 22 43 8.0 22.5 0.00 2.08 0.03 85 1015.3
20260504141312 22 121 4.8 19.3 0.00 2.08 0.03 89 1015.1
20260504140811 22 66 6.4 16.1 0.00 2.08 0.03 89 1015.1
20260504140311 22 39 3.2 9.7 0.00 2.08 0.03 89 1015.2
20260504130812 22 70 9.7 19.3 0.00 2.08 0.03 87 1014.9
20260504130312 22 44 11.3 22.5 0.00 2.08 0.03 87 1014.9
20260504120311 22 34 9.7 27.4 0.00 2.08 0.03 88 1013.9
20260504110311 22 9 3.2 9.7 0.03 2.08 0.03 88 1014.2
20260504100311 23 29 3.2 8.0 0.00 2.06 0.00 88 1013.9
20260504081810 24 49 8.0 19.3 0.00 2.06 0.00 79 1013.9
20260504080811 25 11 6.4 14.5 0.00 2.06 0.00 78 1013.9
20260504080311 25 24 6.4 11.3 0.00 2.06 0.00 77 1014.0
20260504070310 25 47 8.0 19.3 0.03 2.06 2.06 74 1014.7